Regional Weather Roundup
Issued by NWS

Home | Current Version | Previous Version | Graphics & Text | Print | Product List | Glossary On
Versions: 1 2 3 4 5 6 7 8 9 10 11 12 13 14 15 16 17 18 19 20 21 22 23 24 25 26 27 28 29 30 31 32 33 34 35 36 37 38 39 40 41 42 43 44 45 46 47 48 49 50
570
ASUS43 KIND 161700
RWRIN

WEATHER ROUNDUP FOR INDIANA
NATIONAL WEATHER SERVICE INDIANAPOLIS IN
100 PM EDT WED AUG 16 2017

NOTE: "FAIR" INDICATES FEW OR NO CLOUDS BELOW 12,000 FEET WITH NO
SIGNIFICANT WEATHER AND/OR OBSTRUCTIONS TO VISIBILITY.

* - STATION DOES NOT REPORT WEATHER SUCH AS PRECIPITATION OR FOG.

+ - STATION NOT QUALITY CONTROLLED BY THE NATIONAL WEATHER SERVICE.
    USE DATA WITH CAUTION...ESPECIALLY DEWPOINT AND RELATIVE
    HUMIDITY OBSERVATIONS.

INZ001>003-010>013-019-020-161800-
NORTHWEST INDIANA

CITY           SKY/WX    TMP DP  RH WIND       PRES   REMARKS
GARY /AIRPORT/ MOSUNNY   86  66  51 S3        29.99F
MICHIGAN CITY+ MOSUNNY   86  70  58 S5        30.01F
MONTICELLO +   MOSUNNY   85  69  58 SE7       30.01S
RENSSELAER +   MOSUNNY   84  68  58 S10       30.00F

$$

LMZ046-743>745-161800-
SOUTHERN LAKE MICHIGAN

STATION/POSITION TIME  TEMP    WIND        PRES    WAVE
                       AIR SEA DIR/SP/G            HT
                 (UTC) (F)     (DEG/KT/KT) (MB)    (FT)
BURNS HARBOR     1640   79      CALM  /  6 1016.3S
MICHIGAN CITY    1630   81     340/  4/  5   N/A
5NW MICH CITY    1650   76 75   50/  4/  6   N/A     1

$$

INZ004-005-014>016-021>024-161800-
NORTH CENTRAL INDIANA

CITY           SKY/WX    TMP DP  RH WIND       PRES   REMARKS
ELKHART        MOSUNNY   82  66  57 S7        30.02F
GOSHEN         PTSUNNY   82  66  58 SW7       30.03S
SOUTH BEND     MOSUNNY   83  69  62 S12       30.02F
WARSAW +       PTSUNNY   82  68  61 SE7       30.03F

$$

INZ006>009-017-018-025>027-161800-
NORTHEAST INDIANA

CITY           SKY/WX    TMP DP  RH WIND       PRES   REMARKS
FORT WAYNE     MOSUNNY   85  64  49 S6        30.03F
KENDALLVILLE + MOSUNNY   82  67  61 S5        30.05F

$$

INZ028-029-035-036-043>045-051>053-161800-
WEST CENTRAL INDIANA

CITY           SKY/WX    TMP DP  RH WIND       PRES   REMARKS
LAFAYETTE      MOSUNNY   84  71  65 VRB5      30.00F
TERRE HAUTE    CLOUDY    83  73  72 S8        30.01F

$$

INZ030>032-037>040-046>048-054>057-064-065-161800-
CENTRAL INDIANA

CITY           SKY/WX    TMP DP  RH WIND       PRES   REMARKS
COLUMBUS       PTSUNNY   84  66  54 SE6       30.03F
INDIANAPOLIS   CLOUDY    85  69  58 S10       30.02F
-EAGLE CREEK   MOSUNNY   85  67  54 S8        30.02F
KOKOMO +       MOSUNNY   85  71  63 S9        30.04F
MT COMFORT *+  MOSUNNY   84  72  65 S7        30.04F
SHELBYVILLE    SUNNY     86  68  54 SW7       30.03F

$$

INZ033-034-041-042-049-050-058-059-161800-
EAST CENTRAL INDIANA

CITY           SKY/WX    TMP DP  RH WIND       PRES   REMARKS
MUNCIE         PTSUNNY   88  67  49 VRB3      30.03F
RICHMOND +     PTSUNNY   82  70  65 S7        30.07F

$$

INZ060-061-067>069-081>083-085>088-161800-
SOUTHWEST INDIANA

CITY           SKY/WX    TMP DP  RH WIND       PRES   REMARKS
EVANSVILLE     CLOUDY    82  72  71 S8        30.01F
HUNTINGBURG +  CLOUDY    82  74  76 S6        30.03F

$$

INZ062-063-066-070>080-084-089>092-161800-
SOUTH CENTRAL AND SOUTHEAST INDIANA

CITY           SKY/WX    TMP DP  RH WIND       PRES   REMARKS
BLOOMINGTON    CLOUDY    86  69  56 SE12      30.03S
MADISON *+     MOSUNNY   86  68  54 S5        30.05F
SEYMOUR +      MOSUNNY   88  70  55 CALM      30.02F

$$





USA.gov is the U.S. government's official web portal to all federal, state and local government web resources and services.